Wind_Speed
16 15 14 12 10 9 6 6 6 6 6 7 9 11 13 14 14 15 16 17 17 18 18 17 18 18 17 16 16 15 15 15 14 13 12 10 9 7 7 6 5 4 4 4
18 17 15 14 11 11 8 6 4 3 3 5 7 8 10 11 12 13 14 15 16 16 17 16 16 17 17 17 16 16 15 15 14 13 12 11 10 9 8 7 6 5 5 4
19 17 17 16 13 12 11 9 6 4 2 3 4 5 7 9 10 11 12 13 14 15 15 15 15 15 16 16 15 15 15 15 14 13 13 12 11 10 9 8 8 7 7 6
22 20 18 18 16 14 13 11 8 7 5 5 5 4 4 6 7 9 10 11 12 13 14 13 13 14 15 15 15 15 15 15 14 13 13 12 11 10 9 8 8 8 8 7
24 22 21 19 17 16 14 13 12 10 8 7 7 7 4 4 5 7 8 10 10 11 12 12 12 12 13 13 14 14 14 14 14 13 12 12 11 11 11 10 10 9 9 8
24 23 23 20 19 17 15 16 15 13 11 9 7 6 5 5 6 7 7 8 9 9 10 11 11 11 11 12 12 13 13 13 13 13 12 11 12 12 11 11 11 10 10 9
25 25 23 22 21 20 18 19 18 16 13 10 8 8 6 6 5 6 7 7 8 8 9 10 10 10 10 11 11 12 12 12 13 13 13 12 12 12 12 11 11 11 11 10
27 26 24 23 21 22 21 20 19 17 15 12 10 8 6 4 4 4 5 6 6 7 8 8 9 10 10 10 11 11 11 12 13 13 13 12 12 12 12 12 12 11 11 11
29 27 25 23 22 22 23 21 19 17 16 14 13 9 7 6 5 5 5 5 6 6 7 8 8 9 9 10 10 11 11 11 12 13 13 13 12 12 11 11 11 12 12 12
30 29 27 25 24 23 23 21 21 20 18 16 14 12 9 8 8 7 6 6 7 7 7 8 8 8 8 9 10 10 11 12 12 13 13 12 12 11 11 12 11 12 12 13
31 31 29 29 28 25 24 23 22 21 20 18 17 15 11 10 9 8 7 8 9 8 8 8 7 7 8 9 10 11 12 13 12 13 13 12 12 12 12 12 12 12 12 13
32 32 32 31 28 27 25 25 24 23 22 21 20 17 15 13 11 10 9 9 9 10 9 9 8 8 9 9 9 11 12 13 13 13 13 13 13 13 13 12 12 12 12 13
34 35 34 33 31 29 28 27 26 24 23 23 23 21 17 15 13 11 11 11 11 11 11 11 10 9 10 10 10 10 12 13 14 14 14 13 13 13 13 13 13 12 12 13
35 36 36 36 34 31 29 27 27 26 25 24 24 23 19 16 13 13 13 13 13 12 13 13 12 11 10 11 11 12 12 14 15 15 15 14 14 14 14 14 14 14 14 14
36 37 36 35 34 33 31 28 27 27 27 26 26 25 22 19 18 16 16 16 16 14 14 14 13 13 12 12 13 14 14 15 16 16 16 15 15 15 15 14 14 14 14 15
39 38 37 36 35 35 33 31 29 28 28 27 26 26 24 23 21 20 19 18 18 17 16 16 15 14 14 14 15 16 16 17 17 17 17 17 16 16 16 15 15 15 15 15
41 40 40 38 36 36 37 33 32 31 30 28 28 26 26 25 23 21 21 20 20 20 19 18 18 17 16 16 17 17 18 18 18 18 19 19 18 18 17 17 16 16 16 16
42 42 41 40 38 40 38 36 35 33 32 30 28 27 26 24 23 24 24 22 22 23 22 21 20 19 19 18 18 18 19 20 20 19 20 20 20 19 18 18 18 18 18 17
41 41 41 41 41 40 38 37 37 36 34 33 31 29 28 25 25 25 26 26 25 24 24 23 23 22 21 21 20 20 21 21 21 20 20 21 21 19 19 19 19 19 19 19
41 41 41 41 42 41 38 38 38 38 37 35 33 31 31 29 27 27 27 27 27 26 25 25 24 23 23 22 22 22 22 22 22 22 21 21 21 20 20 20 20 20 19 19
41 41 42 42 42 41 37 36 38 39 37 35 34 33 32 31 29 28 29 28 27 27 26 26 25 25 24 24 24 24 24 23 23 23 22 21 20 20 20 20 21 21 20 20
42 42 42 42 42 41 38 38 38 38 36 35 35 33 32 30 30 29 29 29 29 29 28 27 27 26 27 26 26 25 25 25 24 24 23 22 22 21 21 21 22 22 22 21
42 42 41 42 41 38 38 38 38 38 38 36 36 34 33 32 31 30 30 30 30 30 30 29 29 29 29 29 28 27 27 27 26 26 25 24 24 23 23 23 24 24 23 23
42 41 40 41 41 39 38 37 37 37 37 37 36 35 34 33 32 31 31 31 30 30 30 31 31 30 30 30 30 29 28 28 28 28 27 26 26 26 25 25 25 25 25 24
42 42 41 40 40 38 38 38 37 36 36 36 35 34 34 34 34 33 33 33 32 31 31 31 31 31 31 31 30 29 29 29 29 29 29 28 28 28 27 27 26 26 25 25
41 41 41 40 39 38 37 37 36 35 35 35 35 35 35 35 34 35 35 34 34 33 32 32 32 31 31 30 30 30 30 29 30 30 30 30 29 29 28 28 27 27 27 26
Wind_Direction
191 188 180 178 173 167 157 133 108 78 43 27 31 41 44 44 46 45 45 46 45 44 45 49 52 53 55 57 57 57 59 58 56 55 52 51 52 49 44 38 33 28 18 2
197 190 183 184 187 186 185 176 147 96 41 11 20 36 36 40 42 42 42 42 40 41 41 45 48 48 49 52 53 55 55 55 54 52 50 49 49 49 45 37 29 21 10 2
203 193 189 191 195 194 200 213 204 204 250 315 347 14 22 30 33 37 40 39 37 36 36 39 43 43 44 46 47 47 48 47 47 47 47 48 46 45 42 35 26 17 4 355
207 201 199 199 200 198 206 215 220 218 232 285 307 321 358 11 21 32 35 33 33 33 30 33 38 39 39 41 42 42 42 41 42 43 43 41 39 37 33 28 21 13 3 354
207 204 204 205 206 204 207 209 212 222 234 256 275 284 305 343 13 26 30 29 30 28 28 31 32 33 33 35 36 38 37 36 36 36 37 36 33 31 28 23 20 15 9 0
207 206 206 204 206 206 208 208 212 222 231 244 260 277 304 341 4 24 24 24 27 24 27 27 28 26 25 28 30 31 31 31 30 29 29 29 27 25 23 20 18 15 11 5
208 209 209 207 207 207 209 211 216 222 227 236 246 268 292 335 355 15 19 16 19 18 18 18 21 21 21 22 24 24 24 24 23 22 23 24 22 19 17 15 13 11 9 6
208 208 209 210 211 212 214 219 222 227 227 232 241 254 274 307 318 338 358 4 8 12 8 4 11 13 16 17 17 19 18 18 17 16 15 14 14 13 11 10 9 6 2 359
210 210 209 211 213 215 217 221 224 227 228 234 240 247 254 262 274 294 321 343 350 357 351 350 357 0 5 9 10 12 12 10 9 9 7 4 4 4 4 3 2 2 359 356
213 213 210 210 211 213 217 219 221 222 227 237 238 239 244 254 268 285 300 318 327 332 335 338 342 347 354 358 359 359 3 3 2 2 2 1 359 357 356 356 355 355 355 354
216 216 212 213 212 212 216 219 224 226 228 234 237 233 236 247 259 273 297 320 328 318 318 327 334 336 336 341 347 352 354 354 354 353 354 354 352 350 347 347 346 347 348 347
216 217 216 215 214 214 217 221 226 229 232 236 239 237 238 248 255 263 283 302 310 307 310 317 320 320 323 329 339 345 349 349 347 346 346 348 346 344 341 340 338 340 341 342
216 217 217 216 215 215 217 219 224 230 233 234 235 235 240 246 256 265 276 290 294 298 300 303 310 314 317 323 329 335 338 340 340 338 338 339 342 342 338 335 335 334 335 334
218 219 218 218 216 218 220 218 221 227 231 234 238 236 237 244 256 263 270 278 283 290 294 294 301 307 309 313 316 321 326 329 331 332 333 333 333 334 334 333 330 329 329 329
218 219 219 219 218 219 223 222 221 225 229 235 238 239 237 243 252 259 266 273 274 280 286 287 293 298 302 304 306 310 316 319 322 324 326 327 328 328 327 327 326 324 324 324
219 220 220 220 219 220 222 224 224 227 229 234 239 241 239 242 250 258 263 270 269 274 278 280 286 291 294 298 299 303 307 311 315 318 319 319 319 320 320 321 319 318 318 319
221 222 221 221 220 221 221 221 224 227 229 232 237 240 240 243 249 257 262 267 267 271 273 277 281 285 289 292 294 297 300 304 308 311 312 312 311 312 312 314 313 313 313 314
223 225 225 224 222 223 222 222 225 228 231 234 237 240 244 248 251 258 263 267 269 271 272 274 278 282 285 289 292 295 299 302 305 307 307 306 306 305 305 306 308 308 308 310
225 226 226 226 225 226 223 222 226 230 232 235 237 239 243 248 252 258 263 266 267 271 270 271 275 279 282 284 287 291 296 300 302 304 304 303 302 300 301 302 303 303 304 306
226 227 227 227 227 227 224 224 228 232 233 235 237 239 243 247 251 256 261 263 266 269 268 270 273 275 279 282 286 290 294 297 299 301 300 299 299 299 301 301 304 304 302 303
227 228 228 229 229 228 224 224 226 230 233 235 238 240 244 249 253 256 260 262 265 269 270 273 274 275 277 279 282 285 289 292 295 297 297 296 295 295 298 300 300 302 301 300
228 230 231 231 231 229 226 226 228 232 234 235 238 241 245 249 253 257 260 261 264 265 267 269 272 275 277 278 279 281 285 288 291 294 295 294 293 292 294 295 296 297 298 298
227 229 231 232 232 229 228 229 232 234 236 237 238 240 243 247 252 256 259 261 263 264 265 267 269 272 275 276 277 277 280 283 286 289 291 292 292 291 291 292 293 293 294 294
226 228 230 231 230 230 230 231 233 236 239 240 241 242 244 247 250 253 258 261 263 264 267 268 269 271 273 274 275 277 279 281 283 286 288 289 291 290 288 289 291 292 291 292
227 229 230 231 231 230 230 232 234 237 240 241 242 243 244 248 251 254 256 260 262 264 265 268 269 270 272 273 273 276 278 279 282 284 284 285 288 289 287 287 289 289 289 290
227 229 230 230 231 231 231 233 236 238 240 241 243 244 245 248 251 253 256 258 261 264 265 266 267 268 269 271 273 276 277 278 281 283 284 285 286 287 287 286 287 287 287 287
Height
5932 5934 5936 5938 5940 5941 5942 5943 5943 5944 5944 5944 5944 5943 5942 5941 5939 5938 5937 5935 5934 5932 5930 5928 5926 5924 5922 5921 5919 5918 5916 5915 5914 5913 5911 5910 5909 5908 5908 5907 5906 5905 5904 5903
5930 5933 5936 5937 5938 5940 5941 5943 5943 5943 5943 5945 5944 5944 5943 5942 5941 5939 5938 5937 5936 5934 5932 5931 5929 5927 5925 5923 5922 5920 5919 5917 5916 5914 5913 5911 5910 5909 5908 5907 5905 5904 5904 5903
5927 5932 5934 5935 5937 5939 5941 5942 5943 5944 5943 5944 5944 5944 5943 5942 5942 5941 5940 5938 5938 5936 5934 5932 5931 5929 5927 5926 5924 5922 5921 5919 5917 5916 5914 5913 5911 5910 5909 5907 5906 5905 5903 5902
5924 5929 5931 5933 5935 5937 5939 5941 5942 5942 5942 5942 5944 5943 5943 5942 5941 5941 5940 5939 5939 5938 5936 5934 5932 5931 5929 5927 5926 5924 5922 5921 5919 5917 5916 5914 5913 5911 5909 5908 5906 5904 5903 5901
5920 5925 5928 5930 5933 5935 5937 5939 5940 5941 5941 5942 5943 5942 5943 5941 5941 5941 5941 5940 5939 5938 5937 5936 5934 5932 5931 5929 5927 5926 5924 5922 5920 5919 5917 5915 5913 5912 5910 5908 5906 5904 5902 5900
5917 5921 5924 5927 5930 5933 5935 5937 5938 5939 5940 5940 5941 5941 5941 5941 5941 5941 5941 5940 5939 5938 5938 5936 5935 5933 5932 5930 5928 5927 5925 5923 5921 5920 5918 5916 5914 5912 5910 5908 5906 5904 5902 5899
5913 5917 5920 5924 5927 5929 5932 5934 5936 5937 5938 5939 5939 5939 5941 5940 5940 5940 5940 5940 5939 5938 5938 5937 5936 5934 5933 5931 5929 5928 5926 5924 5922 5920 5918 5916 5914 5912 5910 5908 5906 5903 5901 5899
5908 5912 5916 5920 5923 5926 5929 5931 5933 5935 5936 5937 5937 5938 5939 5939 5939 5939 5939 5939 5939 5938 5938 5937 5936 5935 5933 5931 5930 5928 5926 5924 5922 5920 5918 5916 5914 5911 5909 5907 5905 5903 5901 5898
5903 5908 5913 5916 5919 5923 5925 5927 5930 5932 5933 5934 5935 5936 5936 5936 5937 5937 5938 5938 5938 5937 5937 5936 5936 5935 5933 5931 5930 5928 5926 5924 5922 5920 5918 5915 5913 5911 5909 5907 5905 5902 5900 5898
5898 5903 5908 5912 5915 5917 5921 5924 5926 5927 5929 5931 5932 5933 5935 5934 5935 5935 5936 5936 5936 5936 5936 5936 5935 5934 5932 5931 5929 5928 5926 5924 5922 5919 5917 5915 5912 5910 5908 5906 5904 5902 5899 5897
5892 5898 5903 5906 5909 5913 5917 5919 5921 5924 5926 5927 5928 5932 5932 5932 5932 5933 5934 5934 5934 5934 5935 5934 5934 5933 5931 5930 5929 5927 5925 5923 5921 5919 5917 5914 5911 5909 5907 5905 5903 5900 5898 5895
5886 5891 5896 5901 5906 5909 5912 5915 5917 5920 5922 5923 5925 5930 5929 5929 5930 5930 5931 5932 5932 5933 5932 5932 5932 5931 5930 5929 5927 5926 5924 5922 5920 5918 5915 5913 5910 5908 5905 5903 5901 5899 5897 5894
5880 5885 5890 5895 5901 5903 5906 5909 5912 5915 5917 5919 5921 5926 5925 5926 5926 5927 5928 5929 5929 5930 5930 5930 5930 5929 5928 5927 5925 5924 5922 5920 5918 5916 5914 5911 5909 5906 5904 5902 5900 5897 5895 5892
5874 5878 5884 5889 5893 5897 5900 5904 5907 5910 5912 5914 5917 5920 5921 5922 5923 5924 5925 5925 5926 5926 5927 5927 5927 5926 5925 5924 5923 5922 5920 5918 5916 5914 5912 5909 5907 5905 5902 5900 5897 5895 5893 5890
5866 5871 5876 5882 5887 5891 5895 5899 5902 5904 5907 5910 5912 5915 5917 5918 5919 5920 5921 5921 5922 5922 5923 5923 5923 5923 5922 5921 5920 5919 5917 5915 5913 5912 5909 5907 5905 5903 5900 5898 5895 5893 5890 5888
5859 5864 5870 5876 5881 5885 5889 5893 5896 5899 5902 5905 5907 5910 5912 5914 5915 5916 5917 5917 5917 5918 5919 5919 5919 5919 5919 5918 5917 5916 5914 5912 5910 5908 5906 5904 5902 5900 5897 5895 5892 5890 5887 5885
5852 5858 5863 5869 5874 5878 5882 5888 5891 5894 5896 5899 5901 5905 5907 5909 5910 5912 5913 5913 5913 5914 5915 5915 5915 5915 5914 5914 5913 5912 5910 5908 5906 5904 5902 5900 5898 5896 5894 5891 5889 5886 5884 5881
5846 5851 5856 5861 5867 5870 5879 5882 5884 5887 5890 5893 5896 5899 5901 5903 5905 5906 5907 5908 5908 5909 5910 5910 5910 5910 5910 5909 5908 5907 5905 5903 5902 5900 5898 5896 5894 5892 5889 5887 5885 5883 5880 5877
5838 5844 5848 5853 5858 5862 5870 5875 5878 5880 5883 5886 5889 5892 5895 5897 5899 5900 5901 5902 5903 5904 5904 5904 5904 5905 5904 5904 5902 5901 5900 5898 5897 5895 5893 5891 5889 5887 5885 5882 5880 5878 5875 5873
5830 5836 5841 5845 5849 5854 5863 5868 5870 5873 5876 5880 5883 5886 5888 5891 5893 5895 5895 5896 5897 5898 5898 5898 5898 5899 5898 5898 5897 5896 5894 5893 5891 5890 5888 5886 5884 5882 5880 5877 5875 5873 5871 5869
5822 5827 5832 5837 5841 5846 5855 5860 5862 5866 5869 5873 5876 5879 5882 5884 5886 5888 5889 5890 5891 5891 5891 5891 5892 5892 5892 5891 5891 5890 5888 5887 5885 5884 5882 5880 5878 5876 5874 5872 5870 5868 5866 5864
5814 5818 5823 5828 5833 5842 5847 5851 5855 5858 5862 5866 5869 5872 5875 5877 5879 5880 5881 5882 5883 5884 5885 5884 5884 5885 5885 5884 5884 5883 5882 5881 5879 5877 5876 5874 5872 5870 5868 5867 5865 5862 5860 5858
5806 5811 5816 5821 5828 5834 5838 5842 5846 5850 5854 5858 5861 5864 5867 5869 5871 5873 5874 5875 5876 5877 5877 5877 5877 5877 5877 5877 5876 5876 5875 5874 5872 5871 5869 5867 5866 5864 5862 5860 5858 5856 5854 5852
5797 5802 5807 5812 5818 5824 5829 5833 5837 5842 5846 5849 5853 5856 5859 5861 5863 5864 5866 5867 5868 5869 5869 5869 5869 5869 5869 5868 5868 5867 5867 5866 5865 5863 5862 5860 5859 5857 5855 5853 5851 5849 5847 5845
5790 5795 5799 5804 5810 5815 5820 5824 5829 5833 5837 5841 5844 5848 5850 5853 5855 5857 5858 5859 5860 5861 5861 5861 5861 5861 5860 5859 5859 5859 5858 5857 5856 5855 5853 5852 5851 5849 5847 5845 5844 5842 5840 5838
5783 5787 5792 5797 5802 5807 5813 5817 5821 5825 5829 5833 5836 5839 5842 5844 5846 5848 5849 5850 5851 5852 5852 5852 5852 5852 5851 5851 5850 5850 5849 5848 5848 5846 5845 5844 5842 5841 5839 5837 5835 5834 5833 5831